Miscellaneous Local Product
Issued by NWS North Platte, NE

Home | Current Version | Previous Version | Text Only | Print | Product List | Glossary On
Versions: 1 2 3 4 5 6 7 8 9 10 11 12 13 14 15 16 17 18 19 20 21 22 23 24 25 26 27 28 29 30 31 32 33 34 35 36 37 38 39 40 41 42 43 44 45 46 47 48 49 50
553
AXUS43 KLBF 260410
MISLBF


WESTERN AND NORTH CENTRAL NEBRASKA HOURLY WEATHER ROUNDUP
NATIONAL WEATHER SERVICE NORTH PLATTE NE
1100 PM CDT SUN JUN 25 2017

NOTE: "FAIR" INDICATES FEW OR NO CLOUDS BELOW 12,000 FEET WITH NO
SIGNIFICANT WEATHER AND/OR OBSTRUCTIONS TO VISIBILITY.

NOTE: STATIONS NOT REPORTING VARIABLES SUCH AS SKY/WEATHER OR
PRESSURE ARE PROVIDED BY RAWS AND APRS NETWORKS AND ARE NOT UNDER
NATIONAL WEATHER SERVICE QUALITY CONTROL.

...OBSERVATIONS IN AND NEAR THE EASTERN PANHANDLE OF NEBRASKA...

CITY           SKY/WX    TMP DP  RH WIND       PRES   REMARKS
PINE RIDGE     PTCLDY    62  47  57 E6        30.21R
GORDON         FAIR      62  48  60 CALM      30.22R
CHADRON        MOCLDY    61  44  53 E6        30.21R
ALLIANCE       CLEAR     63  48  58 S12       30.22R
SIDNEY         CLEAR     56  53  90 S8        30.29R
CRESCENT LAKE    N/A     63  52  67 S9G16       N/A
$$

...OBSERVATIONS IN NORTHERN NEBRASKA AND FAR SOUTHERN SOUTH DAKOTA...

CITY           SKY/WX    TMP DP  RH WIND       PRES   REMARKS
WINNER         FAIR      65  42  43 SE3       30.16R
VALENTINE      CLOUDY    70  39  32 E8        30.17R
THEDFORD       CLOUDY    63  54  73 S8        30.22F
AINSWORTH      RAIN      61  48  62 S9        30.19R
O`NEILL        CLOUDY    63  44  50 S6        30.19R
ORD            PTCLDY    60  45  57 S8        30.18S
BROKEN BOW     CLEAR     63  48  58 S9        30.21S
VALENTINE NWR    N/A     67  44  43 S9G16       N/A
HALSEY           N/A     67  46  46 S7G16       N/A
BUTTE            N/A     62  41  46 S6          N/A
CHAMBERS         N/A     63  41  43 CALM        N/A
EWING            N/A     63  45  51 S3          N/A
$$

...OBSERVATIONS IN SOUTHWEST NEBRASKA AND FAR NORTHEAST COLORADO...

CITY           SKY/WX    TMP DP  RH WIND       PRES   REMARKS
WRAY           CLOUDY    61  55  82 S6        30.30R
IMPERIAL       CLEAR     55  51  86 CALM      30.27R
OGALLALA       CLEAR     60  53  77 SW5       30.26R
NORTH PLATTE   CLEAR     61  53  75 SW6       30.24R
MCCOOK         PTCLDY    59  54  83 SW3       30.26R
LEXINGTON      CLEAR     60  50  68 S5        30.24S
STAPLETON        N/A     60  49  68 CALM        N/A
GOTHENBURG       N/A     65  48  53 S3          N/A
CALLAWAY         N/A     62  50  65 SW12        N/A
$$

...OBSERVATIONS IN CENTRAL LINCOLN COUNTY AREA...

CITY           SKY/WX    TMP DP  RH WIND       PRES   REMARKS
N.P. AIRPORT   CLEAR     61  53  75 SW6       30.24R
N.P. DOWNTOWN    N/A     61  53  74 CALM        N/A
N.P. SOUTHEAST   N/A     62  53  72 SW5         N/A
N.P. HILLCREST   N/A     61  53  73 SW6         N/A
$$

...SOME OBSERVATIONS FROM AROUND THE REGION...

CITY           SKY/WX    TMP DP  RH WIND       PRES   REMARKS
DENVER         MOCLDY    61  52  72 E13       30.33R
LIMON          CLOUDY    59  55  87 SE13      30.35S
ASPEN          CLOUDY    59  31  34 S6        30.37R
LARAMIE        CLEAR     54  46  74 SE7       30.39R
CASPER         CLEAR     60  37  42 NE9       30.30R
CHEYENNE       CLEAR     59  48  67 SW7       30.36R
SCOTTSBLUFF    CLEAR     66  49  54 S8        30.23R
GRAND ISLAND   CLEAR     60  49  66 S7        30.22S
OMAHA          PTCLDY    64  46  52 S3        30.19F
SIOUX FALLS    LGT RAIN  59  50  72 NE5       30.22R
PIERRE         CLEAR     57  45  64 NE9       30.19R
RAPID CITY     CLEAR     61  33  35 NE13      30.22R
BISMARCK       CLEAR     53  45  74 E3        30.25R
KANSAS CITY    CLEAR     55  51  86 SW5       30.24R
HILL CITY      PTCLDY    58  57  97 CALM      30.29R
WICHITA        CLOUDY    63  54  72 E8        30.24R
DODGE CITY     MOCLDY    64  59  83 E9        30.25R
OKLAHOMA CITY  CLOUDY    70  50  49 E9        30.18R
DALLAS         PTCLDY    78  61  55 E8        30.15R
AMARILLO       TSTM      60  57  89 SE15      30.27R FOG
$$




USA.gov is the U.S. government's official web portal to all federal, state and local government web resources and services.